Погода в Сан-Маркосе

Гватемала     14°56′59″N   91°48′41″W
темп.,
°C
ветер,
м/с
пор.,
м/с
влажн.,
%
обл.,
%
осадки,
мм/ч
давл.,
гПа
погр.,
м
24 июля, сб
сб2400:00+9св349085 0.1 102470
03:00+9св349275 0.0 102271
06:00+9св3391100 0.0 102253
09:00+16св2356100 0.0 1021598
12:00+20юв144570 0.0 10181543
15:00+18вюв146276 0.8 10171404
18:00+14ссв1282100 1.7 101878
21:00+11св349570 0.2 102267
25 июля, вс
вс2500:00+10св349797 0.2 102167
03:00+9св349566 0.0 102063
06:00+8св338863 0.0 102150
09:00+17в125329 0.0 1018706
12:00+20ююз235553 0.2 10161536
15:00+18ююз236680 1.3 10141280
18:00+14ссв1286100 2.3 101675
21:00+11св229346 0.5 102035
26 июля, пн
пн2600:00+9св33945 0.6 102042
03:00+8св338930 0.0 101934
06:00+7св338519 0.0 101930
09:00+17юв02515 0.0 1017680
12:00+20ююз235357 0.1 10151563
15:00+18ююз236457 0.8 10141394
18:00+14всв128447 1.2 1016124
21:00+11св339539 0.4 102051
27 июля, вт
вт2700:00+9св33940 0.6 102035
03:00+9св339376 0.0 101933
06:00+8св33895 0.0 102035
09:00+16вюв1258100 0.0 1018752
12:00+20юв035011 0.1 10161478
15:00+16ю238565 1.8 1015357
18:00+14св22885 4.2 101695
21:00+11св3495100 0.6 102069
28 июля, ср
ср2800:00+10св229689 0.6 102038
03:00+9св33935 0.0 101844
06:00+9св339038 0.0 101951
09:00+17всв136610 0.0 1018825
12:00+17вюв147080 1.4 10161179
15:00+16вюв248598 3.8 1015709
18:00+13всв229240 6.9 101696
21:00+11св3393100 0.3 101960